Stornoway, United Kingdom

8:26 PM BST on August 21, 2017 (GMT +0100)
Stornoway

Weather History for EGPO - June, 2017

Change the Weather History Date:

Monday, June 19, 2017

  Actual Average Record
Temperature  
Mean Temperature 54 °F -  
Max Temperature 59 °F 59 °F 68 °F (2003)
Min Temperature 50 °F 49 °F 41 °F (2012)
Degree Days  
Heating Degree Days 10    
Growing Degree Days 4 (Base 50)    
Moisture  
Dew Point 48 °F    
Average Humidity 77    
Maximum Humidity 94    
Minimum Humidity 47    
Precipitation  
Precipitation 0.04 in 0.09 in - ()
Sea Level Pressure  
Sea Level Pressure 30.13 in    
Wind  
Wind Speed 9 mph ()    
Max Wind Speed 20 mph    
Max Gust Speed -    
Visibility 8.2 miles    
Events Rain    
Averages and records for this station are not official NWS values.
T = Trace of Precipitation, MM = Missing Value Source: Averaged Metar Reports

Daily Weather History Graph

Daily Weather History Graph

Search for Another Location

Airport or City:

Trip Planner

Search our weather history database for the weather conditions in past years. The results will help you decide how hot, cold, wet, or windy it might be!

Date:

Astronomy

Jun. 19, 2017 Rise Set
Actual Time 4:19 AM BST 10:34 PM BST
Civil Twilight 3:01 AM BST 11:52 PM BST
Nautical Twilight Sun does not set Sun does not set
Astronomical Twilight Sun does not set Sun does not set
Moon 2:27 AM BST (6/19) 3:52 PM BST (6/19)
Length of Visible Light 20h 50m
Length of Day
18h 14m
Waning Crescent, 29% of the Moon is Illuminated
Jun 19
Waning Crescent
Jun 24
New
Jul 1
First Quarter
Jul 9
Full
Jul 16
Last Quarter

Hourly Weather History & Observations

Time (BST) Temp. Dew Point Humidity Pressure Visibility Wind Dir Wind Speed Gust Speed Precip Events Conditions
12:00 AM 52 °F 48 °F 83% 30.14 in 17 mi SSW 5.8 mph - -   Overcast
12:20 AM 53.6 °F 48.2 °F 82% 30.15 in 6.2 mi SSW 6.9 mph - N/A   Unknown
12:50 AM 53.6 °F 48.2 °F 82% 30.15 in 6.2 mi SW 5.8 mph - N/A   Unknown
1:00 AM 52 °F 48 °F 82% 30.14 in 19 mi SSW 6.9 mph - -   Overcast
1:20 AM 53.6 °F 48.2 °F 82% 30.15 in 6.2 mi SW 4.6 mph - N/A Rain Light Rain
2:00 AM 52 °F 48 °F 81% 30.14 in 19 mi SSW 5.8 mph - - Rain Rain
2:20 AM 51.8 °F 50.0 °F 94% 30.12 in 6.2 mi SW 3.5 mph - N/A Rain Light Rain
2:50 AM 51.8 °F 50.0 °F 94% 30.12 in 6.2 mi SW 4.6 mph - N/A Rain Light Rain
3:00 AM 52 °F 49 °F 85% 30.13 in 10 mi SW 5.8 mph - - Rain Light Rain Showers
3:20 AM 51.8 °F 50.0 °F 94% 30.12 in 6.2 mi South 5.8 mph - N/A   Mostly Cloudy
3:50 AM 51.8 °F 50.0 °F 94% 30.12 in 6.2 mi SSW 4.6 mph - N/A Rain Light Rain
4:00 AM 52 °F 49 °F 86% 30.12 in 19 mi SSW 6.9 mph - - Rain Rain
4:20 AM 51.8 °F 50.0 °F 94% 30.12 in 6.2 mi SW 4.6 mph - N/A Rain Light Rain
4:50 AM 51.8 °F 50.0 °F 94% 30.09 in 6.2 mi South 5.8 mph - N/A Rain Light Rain
5:00 AM 51 °F 49 °F 88% 30.11 in 11 mi SSW 6.9 mph - - Rain Light Rain Showers
5:20 AM 51.8 °F 50.0 °F 94% 30.12 in 6.2 mi South 4.6 mph - N/A Rain Light Rain
5:50 AM 51.8 °F 50.0 °F 94% 30.12 in 6.2 mi SSW 5.8 mph - N/A Rain Light Rain
6:20 AM 51.8 °F 50.0 °F 94% 30.12 in 6.2 mi SSW 8.1 mph - N/A Rain Light Rain
6:50 AM 51.8 °F 50.0 °F 94% 30.12 in 6.2 mi SSW 8.1 mph - N/A Rain Light Rain
7:00 AM 50 °F 49 °F 93% 30.11 in 6 mi SW 9.2 mph - - Rain Light Rain
7:20 AM 51.8 °F 50.0 °F 94% 30.12 in 6.2 mi SSW 8.1 mph - N/A Rain Light Rain
7:50 AM 51.8 °F 50.0 °F 94% 30.12 in 6.2 mi SW 6.9 mph - N/A Rain Light Rain
8:20 AM 51.8 °F 50.0 °F 94% 30.12 in 6.2 mi SSW 6.9 mph - N/A Rain Light Rain
8:50 AM 51.8 °F 50.0 °F 94% 30.12 in 6.2 mi SSW 6.9 mph - N/A Rain Light Rain
9:20 AM 53.6 °F 51.8 °F 94% 30.12 in 6.2 mi SSW 6.9 mph - N/A   Mostly Cloudy
9:50 AM 53.6 °F 51.8 °F 94% 30.12 in 6.2 mi SW 6.9 mph - N/A   Mostly Cloudy
10:00 AM 54 °F 52 °F 90% 30.12 in 14 mi SSW 8.1 mph - - Rain Rain
10:20 AM 53.6 °F 51.8 °F 94% 30.12 in 6.2 mi SSW 6.9 mph - N/A   Mostly Cloudy
10:50 AM 55.4 °F 51.8 °F 88% 30.12 in 6.2 mi WSW 10.4 mph - N/A   Mostly Cloudy
11:00 AM 54 °F 51 °F 86% 30.12 in 7 mi WSW 9.2 mph - - Rain Light Rain
11:20 AM 57.2 °F 50.0 °F 77% 30.12 in 6.2 mi West 11.5 mph - N/A   Scattered Clouds
11:50 AM 57.2 °F 46.4 °F 67% 30.12 in 6.2 mi West 13.8 mph - N/A   Scattered Clouds
12:00 PM 57 °F 48 °F 63% 30.12 in 25 mi West 12.7 mph - - Rain Rain
12:20 PM 57.2 °F 48.2 °F 72% 30.12 in 6.2 mi West 15.0 mph - N/A   Scattered Clouds
12:50 PM 57.2 °F 48.2 °F 72% 30.12 in 6.2 mi West 15.0 mph - N/A   Scattered Clouds
1:00 PM 56 °F 47 °F 63% 30.12 in 19 mi West 17.3 mph - -   Scattered Clouds
1:20 PM 59.0 °F 48.2 °F 67% 30.12 in 6.2 mi West 17.3 mph - N/A   Scattered Clouds
1:50 PM 57.2 °F 48.2 °F 72% 30.12 in 6.2 mi West 17.3 mph - N/A   Scattered Clouds
2:00 PM 56 °F 46 °F 61% 30.12 in 19 mi West 19.6 mph - -   Scattered Clouds
2:20 PM 59.0 °F 46.4 °F 63% 30.12 in 6.2 mi West 17.3 mph - N/A   Scattered Clouds
2:50 PM 59.0 °F 46.4 °F 63% 30.12 in 6.2 mi West 16.1 mph - N/A   Scattered Clouds
3:00 PM 58 °F 46 °F 54% 30.12 in 14 mi West 17.3 mph - -   Mostly Cloudy
3:20 PM 57.2 °F 46.4 °F 67% 30.12 in 6.2 mi West 16.1 mph - N/A   Scattered Clouds
3:50 PM 57.2 °F 44.6 °F 63% 30.12 in 6.2 mi West 17.3 mph - N/A   Scattered Clouds
4:20 PM 59.0 °F 46.4 °F 63% 30.12 in 6.2 mi West 18.4 mph - N/A   Scattered Clouds
4:50 PM 57.2 °F 44.6 °F 63% 30.12 in 6.2 mi West 16.1 mph - N/A   Scattered Clouds
5:00 PM 58 °F 43 °F 47% 30.13 in 25 mi West 18.4 mph - -   Scattered Clouds
5:20 PM 57.2 °F 46.4 °F 67% 30.12 in 6.2 mi West 17.3 mph - N/A   Scattered Clouds
5:50 PM 59.0 °F 44.6 °F 59% 30.15 in 6.2 mi WNW 17.3 mph - N/A   Scattered Clouds
6:00 PM 58 °F 44 °F 50% 30.13 in 25 mi West 19.6 mph - -   Scattered Clouds
6:20 PM 57.2 °F 44.6 °F 63% 30.15 in 6.2 mi West 17.3 mph - N/A   Scattered Clouds
6:50 PM 55.4 °F 44.6 °F 67% 30.15 in 6.2 mi West 17.3 mph - N/A   Scattered Clouds
7:00 PM 56 °F 44 °F 53% 30.14 in 18 mi West 17.3 mph - -   Scattered Clouds
7:20 PM 57.2 °F 42.8 °F 59% 30.15 in 6.2 mi West 16.1 mph - N/A   Partly Cloudy
7:50 PM 57.2 °F 44.6 °F 63% 30.15 in 6.2 mi West 15.0 mph - N/A   Partly Cloudy
8:00 PM 56 °F 42 °F 49% 30.15 in 28 mi West 16.1 mph - -   Scattered Clouds
8:20 PM 55.4 °F 44.6 °F 67% 30.15 in 6.2 mi West 12.7 mph - N/A   Scattered Clouds
8:50 PM 53.6 °F 46.4 °F 77% 30.15 in 6.2 mi West 12.7 mph - N/A   Scattered Clouds
9:00 PM 54 °F 45 °F 63% 30.17 in 25 mi West 12.7 mph - -   Scattered Clouds
9:20 PM 53.6 °F 44.6 °F 72% 30.18 in 6.2 mi West 9.2 mph - N/A   Scattered Clouds
9:50 PM 51.8 °F 46.4 °F 82% 30.18 in 6.2 mi West 10.4 mph - N/A   Mostly Cloudy
10:00 PM 53 °F 45 °F 67% 30.17 in 22 mi West 11.5 mph - -   Mostly Cloudy
10:20 PM 51.8 °F 46.4 °F 82% 30.18 in 6.2 mi West 9.2 mph - N/A   Mostly Cloudy
10:50 PM 53.6 °F 46.4 °F 77% 30.18 in 6.2 mi West 8.1 mph - N/A   Mostly Cloudy
11:00 PM 52 °F 45 °F 71% 30.18 in 19 mi West 10.4 mph - -   Overcast
11:20 PM 51.8 °F 46.4 °F 82% 30.18 in 6.2 mi WSW 6.9 mph - N/A   Mostly Cloudy
11:50 PM 51.8 °F 48.2 °F 88% 30.18 in 5.6 mi West 11.5 mph - N/A Rain Light Rain